sat.trackr.live / text

‹ back to catalog

STARLINK-34270

NORAD 64355 · 2025-126M

PAYLOAD ACTIVE UNKNOWN

§ Identity

Operator
Country
US
Launch date
2025-06-13
Launch site
AFWTR
Launch vehicle
Mass (kg)
RCS (m²)

Purposes: comms

External: N2YO · Heavens-Above · Gunter

§ Orbital elements

Epoch: 2026-09-20T22:37:26.113440Z

Period
94.14 min
Inclination
70.0006°
Eccentricity
0.0003127
Mean motion
15.29594962 rev/d
Perigee alt
474.9 km
Apogee alt
479.2 km
Semi-major
6,855.2 km
B*
4.1655e-4
RAAN
259.9721°
Arg perigee
265.4827°
Mean anomaly
94.5991°
Rev number
7,118

§ Raw data

STARLINK-342701 64355U 25126M   26263.94266335  .00011871  00000+0  41655-3 0  99972 64355  70.0006 259.9721 0003127 265.4827  94.5991 15.29594962 71186

JSON: /api/v1/satellites/64355 · /tle

For live sub-satellite position, see the globe view (requires WebGL).

§ Visibility from observer

Set your observer location to see the next 7 days of passes ≥ 10°. The values pass through the URL so the page stays shareable.

No JS? Fill the form by hand. The geolocation button needs JavaScript.